Location: Auttagershofen
(48.1940°N, 10.0237°E)
Time: 11:18:55
(UTC+00:00)

IRS-1D - Pass Details

Date: 18 January 2026
Orbit: 737 x 810 km, 98.8° (Epoch: 15 February)

Event Time Altitude Azimuth Distance (km) Brightness Sun altitude
Rises 05:16:26 0° 9° (N) 3,336 6.8 -17.4°
Reaches altitude 10° 05:18:51 10° 4° (N) 2,405 6.0 -17.0°
Maximum altitude 05:23:53 45° 293° (WNW) 1,100 3.9 -16.2°
Drops below altitude 10° 05:28:54 10° 222° (SW) 2,389 5.8 -15.4°
Sets 05:31:18 0° 217° (SW) 3,311 6.6 -15.0°
